TimeMST,TemperatureF,Dew PointF,Humidity,Sea Level PressureIn,VisibilityMPH,Wind Direction,Wind SpeedMPH,Gust SpeedMPH,PrecipitationIn,Events,Conditions,WindDirDegrees,DateUTC
12:51 AM,39.9,28.9,65,30.22,10.0,South,3.5,-,N/A,,Clear,170,2012-12-05 07:51:00
1:51 AM,36.0,27.0,70,30.22,10.0,South,5.8,-,N/A,,Clear,190,2012-12-05 08:51:00
2:51 AM,36.0,26.1,67,30.21,10.0,SSW,6.9,-,N/A,,Clear,210,2012-12-05 09:51:00
3:51 AM,33.1,25.0,72,30.20,10.0,ESE,5.8,-,N/A,,Clear,120,2012-12-05 10:51:00
4:51 AM,34.0,25.0,70,30.20,10.0,Calm,Calm,-,N/A,,Clear,0,2012-12-05 11:51:00
5:51 AM,30.9,23.0,72,30.22,10.0,SW,4.6,-,N/A,,Clear,220,2012-12-05 12:51:00
7:51 AM,36.0,24.1,62,30.22,10.0,SW,3.5,-,N/A,,Clear,220,2012-12-05 14:51:00
9:51 AM,52.0,30.0,43,30.17,10.0,SSE,6.9,-,N/A,,Clear,160,2012-12-05 16:51:00
10:51 AM,57.9,30.9,36,30.13,10.0,SSE,5.8,-,N/A,,Clear,150,2012-12-05 17:51:00
11:51 AM,61.0,32.0,34,30.07,10.0,SSE,11.5,-,N/A,,Clear,160,2012-12-05 18:51:00
12:51 PM,64.9,30.9,28,30.01,10.0,SSE,13.8,-,N/A,,Clear,160,2012-12-05 19:51:00
1:51 PM,66.9,28.9,24,29.98,10.0,South,12.7,-,N/A,,Clear,170,2012-12-05 20:51:00
2:51 PM,68.0,28.0,22,29.95,10.0,South,11.5,-,N/A,,Clear,190,2012-12-05 21:51:00
3:51 PM,66.9,30.0,25,29.94,10.0,South,10.4,-,N/A,,Clear,180,2012-12-05 22:51:00
4:51 PM,60.1,30.0,32,29.94,10.0,South,8.1,-,N/A,,Clear,170,2012-12-05 23:51:00
5:51 PM,57.0,30.0,36,29.95,10.0,South,8.1,-,N/A,,Clear,170,2012-12-06 00:51:00
6:51 PM,48.9,28.0,44,29.96,10.0,South,4.6,-,N/A,,Clear,190,2012-12-06 01:51:00
7:51 PM,48.9,28.9,46,29.95,10.0,SSW,3.5,-,N/A,,Clear,200,2012-12-06 02:51:00
8:51 PM,44.1,26.1,49,29.93,10.0,South,3.5,-,N/A,,Clear,170,2012-12-06 03:51:00
9:51 PM,43.0,26.1,51,29.91,10.0,West,6.9,-,N/A,,Clear,260,2012-12-06 04:51:00
10:51 PM,44.1,28.0,53,29.89,10.0,Calm,Calm,-,N/A,,Clear,0,2012-12-06 05:51:00
11:51 PM,41.0,26.1,55,29.87,10.0,Calm,Calm,-,N/A,,Clear,0,2012-12-06 06:51:00